Total_Precipitation_Accumulation
1.70 1.66 2.77 2.87 2.58 2.29 2.16 2.18 2.34 2.53 2.67 2.73 2.56 2.36 2.20 2.23 2.37 2.49 2.56 2.44 2.34 2.26 2.30 2.31 2.40 2.43 2.30 2.04 2.07 2.26 2.48 2.62 2.54 2.51 2.63 2.75 3.03 3.01 3.10 3.20 3.13 3.07 3.16
1.31 1.54 2.63 2.67 2.38 2.17 2.14 2.22 2.26 2.36 2.47 2.51 2.56 2.41 2.29 2.35 2.47 2.54 2.57 2.44 2.31 2.20 2.21 2.34 2.46 2.39 2.23 2.09 2.12 2.33 2.49 2.56 2.58 2.77 3.12 3.16 3.31 3.37 3.23 3.14 3.13 3.19 3.20
1.11 1.33 2.00 2.45 2.32 2.16 2.11 2.10 2.20 2.31 2.34 2.30 2.39 2.43 2.36 2.56 2.68 2.67 2.64 2.52 2.43 2.30 2.29 2.29 2.28 2.33 2.13 2.19 2.38 2.44 2.35 2.40 2.69 2.86 3.26 3.57 3.27 3.30 3.25 3.26 3.17 3.28 3.27
0.95 1.16 1.75 2.47 2.36 2.27 2.29 2.31 2.35 2.34 2.16 2.08 2.10 2.13 2.23 2.44 2.62 2.71 2.78 2.63 2.62 2.54 2.36 2.18 2.12 2.29 2.23 2.25 2.46 2.39 2.28 2.43 2.71 2.74 2.92 3.31 3.27 3.40 3.57 3.65 3.55 3.49 3.57
1.00 1.14 1.83 2.55 2.34 2.28 2.34 2.46 2.41 2.26 2.21 2.12 2.11 2.17 2.18 2.36 2.58 2.71 2.69 2.66 2.71 2.66 2.51 2.36 2.24 2.35 2.34 2.34 2.34 2.34 2.40 2.52 2.67 2.38 2.58 3.00 3.76 3.99 3.48 3.71 3.84 3.69 3.49
0.90 1.05 1.67 2.44 2.31 2.25 2.29 2.47 2.33 2.19 2.26 2.17 2.10 2.17 2.27 2.55 2.82 2.82 2.75 2.86 2.78 2.72 2.56 2.53 2.42 2.41 2.37 2.34 2.33 2.39 2.52 2.56 2.27 2.26 2.54 2.87 3.53 3.94 3.31 3.31 3.48 3.54 3.47
0.90 0.98 1.39 2.14 2.21 2.19 2.24 2.33 2.26 2.29 2.36 2.18 2.08 2.15 2.32 2.52 2.73 2.83 2.81 2.87 2.89 2.95 2.83 2.66 2.57 2.43 2.32 2.31 2.25 2.33 2.48 2.29 1.88 2.22 2.44 2.89 3.26 3.50 3.12 3.03 3.19 3.44 3.76
1.00 0.93 1.13 1.79 1.99 2.03 2.24 2.25 2.22 2.24 2.19 2.11 2.14 2.20 2.28 2.39 2.53 2.61 2.66 2.74 2.82 2.87 2.87 2.68 2.54 2.40 2.32 2.19 2.27 2.42 2.40 1.93 1.48 1.83 2.26 2.87 3.56 3.55 3.08 2.89 3.02 3.32 3.74
1.38 1.19 1.19 1.33 1.48 1.81 2.21 2.23 2.27 2.27 2.08 1.99 2.00 2.04 2.06 2.11 2.24 2.31 2.40 2.58 2.69 2.83 2.73 2.52 2.41 2.40 2.41 2.25 2.19 2.25 2.19 1.87 1.63 1.82 1.79 2.77 3.69 3.56 3.09 2.86 2.88 3.08 3.36
1.40 1.33 1.25 1.25 1.29 1.61 1.81 2.09 2.34 2.37 2.19 1.96 1.88 1.85 1.95 1.93 1.98 2.12 2.15 2.49 2.72 2.85 2.70 2.53 2.45 2.34 2.37 2.34 2.21 2.10 1.99 1.67 1.44 1.54 1.97 2.78 3.64 3.58 3.19 2.87 2.74 2.64 2.82
1.32 1.34 1.26 1.25 1.36 1.65 1.79 1.85 2.16 2.32 2.26 1.82 1.56 1.58 1.58 1.53 1.63 1.77 1.87 2.42 2.65 2.88 2.84 2.66 2.47 2.33 2.21 2.15 2.13 2.01 1.60 1.37 1.34 1.54 2.09 3.20 3.82 3.89 3.40 2.97 2.73 2.48 2.37
1.14 1.17 1.17 1.17 1.22 1.39 1.54 1.91 2.06 1.86 1.92 1.57 1.46 1.42 1.42 1.51 1.58 1.43 1.67 2.20 2.44 2.69 2.76 2.63 2.49 2.20 1.88 1.68 1.65 1.62 1.39 1.21 1.23 1.46 2.25 3.48 4.08 4.21 3.63 3.06 2.62 2.36 2.31
1.01 0.94 0.89 0.94 0.96 1.09 1.30 1.45 1.67 1.88 1.87 1.82 1.71 1.59 1.61 1.49 1.37 1.39 1.55 1.74 1.97 2.15 2.21 2.28 2.19 1.88 1.65 1.57 1.53 1.39 1.31 1.12 1.22 1.45 2.34 3.33 3.95 4.27 3.93 3.30 2.73 2.56 2.60
1.06 1.05 0.87 0.81 0.85 0.94 1.06 1.18 1.36 1.54 1.63 1.64 1.53 1.40 1.60 1.57 1.42 1.45 1.63 1.74 1.79 1.97 2.25 2.32 2.25 1.95 1.70 1.54 1.47 1.33 1.24 1.17 1.19 1.36 2.11 2.82 3.48 3.97 4.06 3.63 3.03 2.70 2.63
1.08 1.13 0.99 0.81 0.83 0.95 1.05 1.09 1.07 1.28 1.39 1.41 1.52 1.39 1.41 1.45 1.35 1.31 1.40 1.65 1.75 1.83 2.09 2.20 2.07 2.00 1.95 1.83 1.68 1.53 1.42 1.34 1.33 1.31 1.70 2.24 2.81 3.49 3.95 3.84 3.40 2.88 2.70
0.96 0.99 0.95 0.87 0.90 0.96 0.95 0.93 0.91 0.93 1.13 1.15 1.14 1.04 1.19 1.36 1.35 1.36 1.31 1.48 1.77 1.88 1.95 1.97 1.90 1.95 1.95 1.88 1.74 1.67 1.60 1.40 1.48 1.47 1.57 1.67 1.95 2.46 3.25 3.73 3.54 3.08 2.85
0.83 0.86 0.90 0.92 0.93 0.96 0.98 0.98 0.93 0.92 0.99 1.06 1.07 1.03 1.13 1.25 1.34 1.32 1.24 1.37 1.63 1.86 1.92 1.91 1.87 1.96 1.88 1.73 1.76 1.75 1.71 1.57 1.60 1.65 1.62 1.59 1.53 1.81 2.47 3.20 3.39 3.25 3.19
0.66 0.72 0.81 0.80 0.89 0.94 0.97 1.04 1.00 1.03 1.01 0.99 1.04 1.01 1.02 1.16 1.30 1.42 1.38 1.34 1.54 1.80 2.06 2.22 2.09 2.05 2.00 1.88 1.90 1.85 1.72 1.73 1.71 1.69 1.64 1.64 1.66 1.55 1.76 2.15 2.62 3.09 3.34
0.54 0.56 0.62 0.72 0.82 0.88 0.95 1.05 1.02 1.04 1.20 1.23 1.12 1.03 1.08 1.17 1.25 1.49 1.62 1.54 1.61 1.85 1.99 2.07 2.11 2.00 1.99 1.94 1.79 1.75 1.67 1.74 1.79 1.62 1.61 1.61 1.69 1.66 1.60 1.45 1.68 2.20 2.80
0.52 0.52 0.55 0.64 0.71 0.73 0.87 1.02 1.12 1.08 1.17 1.37 1.40 1.39 1.42 1.46 1.47 1.61 1.74 1.77 1.81 1.94 1.96 2.14 2.39 2.23 2.03 1.98 1.80 1.70 1.65 1.68 1.71 1.69 1.73 1.73 1.73 1.70 1.66 1.49 1.45 1.43 1.88
0.50 0.47 0.55 0.63 0.67 0.68 0.78 0.91 1.03 1.15 1.30 1.50 1.55 1.60 1.71 1.75 1.75 1.87 1.98 2.04 2.00 1.94 2.02 2.23 2.65 2.61 2.31 2.07 2.05 1.94 1.80 1.75 1.77 1.72 1.82 1.89 1.79 1.74 1.78 1.70 1.56 1.43 1.36
0.45 0.45 0.48 0.60 0.71 0.74 0.80 0.94 1.13 1.39 1.46 1.61 1.82 1.81 1.80 1.85 1.88 1.94 2.15 2.26 2.22 2.22 2.30 2.37 2.67 2.89 2.66 2.45 2.47 2.67 2.44 2.23 1.86 1.56 1.59 1.67 1.71 1.75 1.74 1.76 1.67 1.54 1.49
0.42 0.51 0.55 0.67 0.87 1.03 1.11 1.35 1.68 1.95 2.01 1.95 1.98 2.04 2.04 2.05 2.10 2.04 2.12 2.29 2.32 2.32 2.39 2.60 2.90 3.27 3.28 2.97 2.72 2.94 2.73 2.44 2.32 1.80 1.47 1.49 1.62 1.73 1.75 1.81 1.78 1.65 1.59
0.44 0.58 0.77 0.98 1.28 1.49 1.60 1.78 2.05 2.19 2.24 2.14 2.12 2.15 2.19 2.11 2.04 2.05 2.09 2.24 2.40 2.55 2.69 2.73 2.70 3.16 3.54 3.36 3.12 2.72 2.44 2.31 2.45 2.32 1.84 1.51 1.53 1.57 1.64 1.65 1.76 1.85 1.79
0.68 0.90 1.25 1.53 1.73 1.87 1.90 1.95 2.20 2.35 2.51 2.52 2.39 2.26 2.22 2.21 2.17 2.07 2.04 2.07 2.10 2.22 2.38 2.52 2.59 2.86 3.15 3.36 3.32 3.08 2.77 2.58 2.13 2.14 2.22 1.97 1.69 1.44 1.42 1.54 1.73 1.81 1.83
1.11 1.33 1.57 1.73 1.88 1.87 1.85 1.87 2.00 2.20 2.38 2.40 2.40 2.37 2.29 2.23 2.15 2.02 1.94 1.99 1.99 1.98 2.11 2.24 2.38 2.66 2.89 3.06 3.15 3.06 2.96 2.89 2.58 2.28 2.08 2.04 1.90 1.65 1.47 1.47 1.54 1.62 1.69